GAOFEN 9 DEB, 44600

Orbit data source: Space-Track

GAOFEN 9 DEB, 44600 is space debris in SSO originally from a launch on Mon, 14 Sep 2015 UTC launched from the Jiuquan Satellite Launch Center, China (JSC). Debris objects in space refer to the collection of defunct objects orbiting the Earth. Examples of debris include non-operational satellites, rocket bodies, and fragments generated from explosions, collisions, or faulty payload assembly.

Loading next visibility...
GAOFEN 9 DEB details
Identifier
44600, 2015-047B
Orbit
SSO
Last TLE update7 hours ago
Origin
Flag of CNCASC (CN / PRC)
ManufacturerUnknown
MissionSpacecraft
Bus & MotorUnknown
MassUnknown
Launch date (UTC)
2015-09-14 (9 years ago)
Launch vehicleUnknown
Launch site
Jiuquan Satellite Launch Center, China (JSC)
Object type
Payload
Rocket body
Debris
Shape & HBRUnknown
Radar Cross SectionSmall (<0.1 m²)

Expand to show TLE details & history

TLE from 7 hours ago
0 GAOFEN 9 DEB
1 44600U 15047B   24361.25585572  .00013794  00000-0  27292-2 0  9994
2 44600  98.1159 290.3172 0166997 305.7535  52.8229 14.53909823487471
Epoch: 2024-12-26T06:08Z
Definitive object data (Epoch: 2024-12-26T06:08:25.934Z)
Latitude-0.00002°
Longitude102.97128°
Altitude645.59 km
Speed7.572 km/s
True Right ascension19h 21m 16s
True Declination0° 00' 00"
Sunlit
Object was in daylight at TLE epoch
Visualization TLE readout
Latitude77.4196°
Longitude63.78704°
Altitude809.354 km
Speed7.411 km/s
Apparent Right ascension23h 14m 28s
Apparent Declination33° 20' 58"
Sunlit
Object is in daylight
Visualization observer readout
Local Sidereal Time12:28:34
Azimuth15.931° NNE
Elevation-14.758°
Doppler factor1
Orbital elements
Apogee altitude828.361 km
Perigee altitude591.622 km
Semi-major axis7,088.129 km
Eccentricity0.0166997
Inclination98.1159°
RAAN290.3172°
Arg. of periapsis305.7535°
True anomaly54.36692°
Mean anomaly52.8229°
Eccentric anomaly53.59297°
Mean motion3.63702 °/min
BSTAR0.0027292
Orbital period98.98 mins
Loading maneuver chart data...
Loading historical data...
Loading historical data...
Loading historical data...
Loading historical data...
Loading historical data...
Loading historical data...
Loading historical data...
Other satellites on launch #47 in the year 2015 (2015-09-14 UTC)

GAOFEN 9 DEB Visibility forecast

Observer location: undefined°, undefined

Span
Click to sort rows by Start time (UTC) header in descending order
Start Az.
Max El. time (UTC)
Max El. Az.
Max El.
End time (UTC)
End Az.
8 mins2024-12-26 19:28:57.480Z164.765° S2024-12-26 19:31:57.480Z154.522° SSE44.513°2024-12-26 19:36:57.480Z347.803° N
7 mins2024-12-27 07:30:57.480Z44.148° NE2024-12-27 07:33:57.480Z86.325° E25.66°2024-12-27 07:37:57.480Z147.22° SSE
8 mins2024-12-27 09:08:57.480Z346.263° N2024-12-27 09:11:57.480Z299.532° NW30.324°2024-12-27 09:16:57.480Z227.069° WSW
|